Weather History for Plant City, FL

Change the Weather History Date:

Thursday, November 22, 2012

  Actual Average Record
Temperature  
Mean Temperature 60 °F -  
Max Temperature 73 °F 77 °F 89 °F (1973)
Min Temperature 46 °F 53 °F 30 °F (1937)
Degree Days  
Heating Degree Days 6    
Growing Degree Days 10 (Base 50)    
Moisture  
Dew Point 37 °F    
Average Humidity 48    
Maximum Humidity 100    
Minimum Humidity 20    
Precipitation  
Precipitation 0.00 in - - ()
Sea Level Pressure  
Sea Level Pressure 30.15 in    
Wind  
Wind Speed 4 mph (NNE)    
Max Wind Speed 17 mph    
Max Gust Speed 25 mph    
Visibility 10 miles    
Events      
Averages and records for this station are not official NWS values.
T = Trace of Precipitation, MM = Missing Value Source: NWS Daily Summary

Daily Weather History Graph

Daily Weather History Graph

Search for Another Location

Airport:

Trip Planner

Search our weather history database for the weather conditions in past years. The results will help you decide how hot, cold, wet, or windy it might be!

Date:

Astronomy

Nov. 22, 2012 Rise Set
Actual Time 6:56 AM EST 5:33 PM EST
Civil Twilight 6:30 AM EST 5:58 PM EST
Nautical Twilight 6:02 AM EST 6:27 PM EST
Astronomical Twilight 5:34 AM EST 6:55 PM EST
Moon 1:55 PM EST (11/22) 1:40 AM EST (11/22)
Length of Visible Light 11h 27m
Length of Day
10h 37m
Waxing Gibbous, 71% of the Moon is Illuminated
Nov 22
Waxing Gibbous
Nov 28
Full
Dec 6
Last Quarter
Dec 13
New
Dec 20
First Quarter

Hourly Weather History & Observations

Time (EST) Temp. Dew Point Humidity Pressure Visibility Wind Dir Wind Speed Gust Speed Precip Events Conditions
12:15 AM 53.6 °F 50.0 °F 88% 30.12 in 10.0 mi North 3.5 mph - N/A   Clear
12:35 AM 53.6 °F 50.0 °F 88% 30.12 in 10.0 mi Calm Calm - N/A   Clear
12:55 AM 51.8 °F 48.2 °F 88% 30.12 in 10.0 mi NNW 3.5 mph - N/A   Clear
1:15 AM 51.8 °F 51.8 °F 100% 30.12 in 10.0 mi NNW 3.5 mph - N/A   Clear
1:35 AM 51.8 °F 48.2 °F 88% 30.12 in 10.0 mi Calm Calm - N/A   Clear
1:55 AM 51.8 °F 48.2 °F 88% 30.11 in 10.0 mi Calm Calm - N/A   Clear
2:15 AM 51.8 °F 48.2 °F 88% 30.11 in 10.0 mi Calm Calm - N/A   Clear
2:35 AM 51.8 °F 48.2 °F 88% 30.11 in 10.0 mi Calm Calm - N/A   Clear
2:55 AM 50.0 °F 48.2 °F 94% 30.11 in 10.0 mi Calm Calm - N/A   Clear
3:15 AM 50.0 °F 50.0 °F 100% 30.11 in 10.0 mi Calm Calm - N/A   Clear
3:35 AM 50.0 °F - N/A% 30.11 in 10.0 mi Calm Calm - N/A   Clear
3:55 AM 50.0 °F - N/A% 30.11 in 10.0 mi NNW 3.5 mph - N/A   Clear
4:15 AM 50.0 °F - N/A% 30.11 in 10.0 mi NNW 3.5 mph - N/A   Clear
4:35 AM 50.0 °F - N/A% 30.11 in 10.0 mi NNW 3.5 mph - N/A   Clear
4:55 AM 50.0 °F - N/A% 30.11 in 10.0 mi NNW 3.5 mph - N/A   Clear
5:15 AM 50.0 °F - N/A% 30.11 in 10.0 mi Calm Calm - N/A   Clear
5:35 AM 48.2 °F - N/A% 30.12 in 10.0 mi Calm Calm - N/A   Clear
5:55 AM 48.2 °F - N/A% 30.13 in 10.0 mi Calm Calm - N/A   Clear
6:15 AM 48.2 °F - N/A% 30.14 in 10.0 mi Calm Calm - N/A   Clear
6:35 AM 48.2 °F - N/A% 30.14 in 10.0 mi NNW 3.5 mph - N/A   Clear
6:55 AM 48.2 °F - N/A% 30.15 in 10.0 mi NNW 4.6 mph - N/A   Clear
7:15 AM 48.2 °F - N/A% 30.15 in 10.0 mi NNW 4.6 mph - N/A   Clear
7:35 AM 50.0 °F - N/A% 30.16 in 10.0 mi NNW 3.5 mph - N/A   Clear
7:55 AM 51.8 °F - N/A% 30.17 in 10.0 mi NNW 3.5 mph - N/A   Clear
8:15 AM 51.8 °F 48.2 °F 88% 30.17 in 10.0 mi NNW 4.6 mph - N/A   Clear
8:35 AM 53.6 °F 48.2 °F 82% 30.18 in 10.0 mi North 4.6 mph - N/A   Clear
8:55 AM 55.4 °F 48.2 °F 77% 30.18 in 10.0 mi North 6.9 mph - N/A   Clear
9:15 AM 59.0 °F 48.2 °F 67% 30.18 in 10.0 mi NNE 8.1 mph - N/A   Clear
9:35 AM 60.8 °F 46.4 °F 59% 30.19 in 10.0 mi North 6.9 mph - N/A   Clear
9:55 AM 62.6 °F 42.8 °F 48% 30.19 in 10.0 mi NNE 9.2 mph 16.1 mph N/A   Clear
10:15 AM 64.4 °F 39.2 °F 40% 30.19 in 10.0 mi North 10.4 mph 16.1 mph N/A   Clear
10:35 AM 66.2 °F 33.8 °F 30% 30.19 in 10.0 mi NNE 10.4 mph 17.3 mph N/A   Clear
10:55 AM 68.0 °F 33.8 °F 28% 30.19 in 10.0 mi NE 8.1 mph - N/A   Clear
11:15 AM 68.0 °F 32.0 °F 26% 30.18 in 10.0 mi North 12.7 mph 16.1 mph N/A   Clear
11:35 AM 69.8 °F 32.0 °F 25% 30.17 in 10.0 mi North 12.7 mph 17.3 mph N/A   Clear
11:55 AM 69.8 °F 30.2 °F 23% 30.16 in 10.0 mi NNE 12.7 mph 18.4 mph N/A   Clear
12:15 PM 71.6 °F 30.2 °F 22% 30.15 in 10.0 mi NNE 6.9 mph - N/A   Clear
12:35 PM 73.4 °F 30.2 °F 20% 30.14 in 10.0 mi North 11.5 mph 18.4 mph N/A   Clear
12:55 PM 73.4 °F 30.2 °F 20% 30.13 in 10.0 mi North 9.2 mph 19.6 mph N/A   Clear
1:15 PM 73.4 °F 30.2 °F 20% 30.12 in 10.0 mi NNE 11.5 mph 25.3 mph N/A   Clear
1:35 PM 73.4 °F 30.2 °F 20% 30.12 in 10.0 mi North 17.3 mph 21.9 mph N/A   Clear
1:55 PM 73.4 °F 30.2 °F 20% 30.12 in 10.0 mi NNE 9.2 mph 19.6 mph N/A   Clear
2:15 PM 73.4 °F 30.2 °F 20% 30.12 in 10.0 mi North 13.8 mph 20.7 mph N/A   Clear
2:35 PM 73.4 °F 30.2 °F 20% 30.11 in 10.0 mi North 11.5 mph 23.0 mph N/A   Clear
2:55 PM 73.4 °F 30.2 °F 20% 30.11 in 10.0 mi North 15.0 mph 20.7 mph N/A   Clear
3:15 PM 73.4 °F 30.2 °F 20% 30.11 in 10.0 mi NNE 9.2 mph 19.6 mph N/A   Clear
3:35 PM 73.4 °F 30.2 °F 20% 30.11 in 10.0 mi NNE 6.9 mph 17.3 mph N/A   Clear
3:55 PM 73.4 °F 30.2 °F 20% 30.12 in 10.0 mi NNE 8.1 mph 17.3 mph N/A   Clear
4:15 PM 71.6 °F 28.4 °F 20% 30.12 in 10.0 mi NNE 10.4 mph 17.3 mph N/A   Clear
4:35 PM 71.6 °F 30.2 °F 22% 30.13 in 10.0 mi NNE 6.9 mph - N/A   Clear
4:55 PM 69.8 °F 28.4 °F 21% 30.13 in 10.0 mi NNE 8.1 mph - N/A   Clear
5:15 PM 68.0 °F 30.2 °F 24% 30.14 in 10.0 mi NNE 6.9 mph - N/A   Clear
5:35 PM 66.2 °F 30.2 °F 26% 30.14 in 10.0 mi NNE 5.8 mph - N/A   Clear
5:55 PM 66.2 °F 32.0 °F 28% 30.15 in 10.0 mi North 4.6 mph - N/A   Clear
6:15 PM 62.6 °F 32.0 °F 32% 30.16 in 10.0 mi NNE 3.5 mph - N/A   Clear
6:35 PM 59.0 °F 35.6 °F 42% 30.17 in 10.0 mi NE 3.5 mph - N/A   Clear
6:55 PM 62.6 °F 33.8 °F 34% 30.18 in 10.0 mi NE 4.6 mph - N/A   Clear
7:15 PM 60.8 °F 33.8 °F 36% 30.18 in 10.0 mi NE 4.6 mph - N/A   Clear
7:35 PM 59.0 °F 33.8 °F 39% 30.19 in 10.0 mi NE 4.6 mph - N/A   Clear
7:55 PM 59.0 °F 33.8 °F 39% 30.20 in 10.0 mi NNE 4.6 mph - N/A   Clear
8:15 PM 59.0 °F 32.0 °F 36% 30.20 in 10.0 mi NNE 5.8 mph - N/A   Clear
8:35 PM 59.0 °F 32.0 °F 36% 30.21 in 10.0 mi NNE 4.6 mph - N/A   Clear
8:55 PM 57.2 °F 32.0 °F 38% 30.21 in 10.0 mi NNE 3.5 mph - N/A   Clear
9:15 PM 55.4 °F 33.8 °F 44% 30.22 in 10.0 mi NE 3.5 mph - N/A   Clear
9:35 PM 53.6 °F 33.8 °F 47% 30.22 in 10.0 mi Calm Calm - N/A   Clear
9:55 PM 53.6 °F 35.6 °F 51% 30.22 in 10.0 mi NE 3.5 mph - N/A   Clear
10:15 PM 50.0 °F 37.4 °F 62% 30.22 in 10.0 mi Calm Calm - N/A   Clear
10:35 PM 48.2 °F 37.4 °F 66% 30.22 in 10.0 mi Calm Calm - N/A   Clear
10:55 PM 48.2 °F 39.2 °F 71% 30.22 in 10.0 mi NE 3.5 mph - N/A   Clear
11:15 PM 48.2 °F 39.2 °F 71% 30.21 in 10.0 mi Calm Calm - N/A   Clear
11:35 PM 46.4 °F 37.4 °F 71% 30.21 in 10.0 mi Calm Calm - N/A   Clear
11:55 PM 46.4 °F 39.2 °F 76% 30.20 in 10.0 mi Calm Calm - N/A   Clear